When you browse on this site, cookies collect data to enhance your experience and personalize the content and advertising you see.
Visit our Privacy Policy to learn more. By continuing to use the site, you agree to this use of cookies and data.
  • En España
  • Lista de países
  • Para 7 días
  • Temperatura del agua
  • El tiempo en el mapa
  • Informadores
  • user-avatar
    Iniciar sesión

    Tiempo cada hora Manchester

    Hoy, 8 Abril, Miércoles

    Tiempo Temperatura Precipitaciones Viento Presión Humedad
    00:00 +9°C° 0 mm 0 mps 765 mmHg 82%
    01:00 +10°C° 0 mm 1 mps 765 mmHg 81%
    02:00 +10°C° 0 mm 1 mps 764 mmHg 81%
    03:00 +10°C° 0 mm 1 mps 764 mmHg 80%
    04:00 +9°C° 0 mm 0 mps 764 mmHg 79%
    05:00 +9°C° 0 mm 0 mps 764 mmHg 78%
    06:00 +9°C° 0 mm 0 mps 764 mmHg 78%
    07:00 +10°C° 0 mm 0 mps 764 mmHg 72%
    08:00 +12°C° 0 mm 0 mps 764 mmHg 67%
    09:00 +13°C° 0 mm 0 mps 764 mmHg 62%
    10:00 +15°C° 0 mm 1 mps 764 mmHg 59%
    11:00 +18°C° 0 mm 1 mps 764 mmHg 56%
    12:00 +18°C° 0 mm 2 mps 764 mmHg 53%
    13:00 +18°C° 0 mm 2 mps 763 mmHg 54%
    14:00 +18°C° 0 mm 2 mps 763 mmHg 56%
    15:00 +18°C° 0 mm 2 mps 763 mmHg 57%
    16:00 +17°C° 0 mm 2 mps 763 mmHg 61%
    17:00 +16°C° 0 mm 2 mps 763 mmHg 65%
    18:00 +15°C° 0 mm 2 mps 763 mmHg 68%
    19:00 +14°C° 0 mm 1 mps 763 mmHg 71%
    20:00 +13°C° 0 mm 1 mps 763 mmHg 74%
    21:00 +12°C° 0 mm 1 mps 764 mmHg 76%
    22:00 +11°C° 0 mm 1 mps 764 mmHg 77%
    23:00 +11°C° 0 mm 1 mps 764 mmHg 77%

    Mañana, 9 Abril, Jueves

    Tiempo Temperatura Precipitaciones Viento Presión Humedad
    00:00 +10°C° 0 mm 0 mps 764 mmHg 77%
    01:00 +10°C° 0 mm 0 mps 764 mmHg 78%
    02:00 +10°C° 0 mm 1 mps 764 mmHg 79%
    03:00 +10°C° 0 mm 1 mps 764 mmHg 80%
    04:00 +10°C° 0 mm 1 mps 764 mmHg 81%
    05:00 +10°C° 0 mm 1 mps 764 mmHg 82%
    06:00 +9°C° 0 mm 2 mps 765 mmHg 83%
    07:00 +10°C° 0 mm 2 mps 765 mmHg 80%
    08:00 +12°C° 0 mm 2 mps 765 mmHg 78%
    09:00 +12°C° 0 mm 3 mps 765 mmHg 75%
    10:00 +13°C° 0 mm 3 mps 765 mmHg 72%
    11:00 +14°C° 0 mm 3 mps 765 mmHg 69%
    12:00 +17°C° 0 mm 3 mps 765 mmHg 66%
    13:00 +17°C° 0 mm 3 mps 765 mmHg 66%
    14:00 +17°C° 0 mm 3 mps 764 mmHg 66%
    15:00 +18°C° 0 mm 4 mps 764 mmHg 66%
    16:00 +17°C° 0 mm 4 mps 764 mmHg 69%
    17:00 +15°C° 0 mm 4 mps 764 mmHg 73%
    18:00 +14°C° 0 mm 4 mps 764 mmHg 76%
    19:00 +13°C° 0 mm 3 mps 764 mmHg 79%
    20:00 +13°C° 0 mm 3 mps 765 mmHg 82%
    21:00 +12°C° 0 mm 3 mps 765 mmHg 85%
    22:00 +11°C° 0 mm 3 mps 765 mmHg 86%
    23:00 +12°C° 0 mm 2 mps 765 mmHg 86%

    Pasado mañana, 10 Abril, Viernes

    Tiempo Temperatura Precipitaciones Viento Presión Humedad
    00:00 +10°C° 0 mm 2 mps 765 mmHg 87%
    01:00 +10°C° 0 mm 2 mps 764 mmHg 86%
    02:00 +10°C° 0 mm 2 mps 764 mmHg 85%
    03:00 +10°C° 0 mm 2 mps 764 mmHg 84%
    04:00 +10°C° 0 mm 2 mps 764 mmHg 83%
    05:00 +9°C° 0 mm 2 mps 764 mmHg 83%
    06:00 +9°C° 0 mm 2 mps 764 mmHg 82%
    07:00 +12°C° 0 mm 2 mps 764 mmHg 77%
    08:00 +13°C° 0 mm 2 mps 764 mmHg 72%
    09:00 +14°C° 0 mm 2 mps 763 mmHg 67%
    10:00 +16°C° 0 mm 3 mps 763 mmHg 65%
    11:00 +17°C° 0 mm 3 mps 763 mmHg 64%
    12:00 +19°C° 0 mm 3 mps 763 mmHg 63%
    13:00 +19°C° 0.3 mm 3 mps 762 mmHg 63%
    14:00 +20°C° 0.3 mm 4 mps 762 mmHg 64%
    15:00 +20°C° 0.3 mm 4 mps 761 mmHg 64%
    16:00 +19°C° 0.3 mm 3 mps 761 mmHg 67%
    17:00 +18°C° 0.3 mm 3 mps 761 mmHg 70%
    18:00 +18°C° 0.3 mm 2 mps 761 mmHg 73%
    19:00 +17°C° 0.1 mm 2 mps 761 mmHg 77%
    20:00 +16°C° 0.1 mm 2 mps 761 mmHg 80%
    21:00 +15°C° 0.1 mm 2 mps 761 mmHg 83%
    22:00 +14°C° 0 mm 2 mps 761 mmHg 85%
    23:00 +14°C° 0 mm 1 mps 761 mmHg 87%

    11 Abril, Sábado

    Tiempo Temperatura Precipitaciones Viento Presión Humedad
    00:00 +14°C° 0 mm 1 mps 761 mmHg 88%
    01:00 +13°C° 0 mm 1 mps 761 mmHg 89%
    02:00 +13°C° 0 mm 1 mps 761 mmHg 90%
    03:00 +13°C° 0 mm 1 mps 760 mmHg 92%
    04:00 +13°C° 0 mm 1 mps 760 mmHg 92%
    05:00 +12°C° 0 mm 1 mps 760 mmHg 93%
    06:00 +12°C° 0 mm 1 mps 760 mmHg 93%
    07:00 +13°C° 0 mm 1 mps 760 mmHg 89%
    08:00 +14°C° 0 mm 1 mps 760 mmHg 85%
    09:00 +15°C° 0 mm 2 mps 760 mmHg 82%
    10:00 +16°C° 0 mm 2 mps 760 mmHg 79%
    11:00 +16°C° 0 mm 3 mps 760 mmHg 76%
    12:00 +17°C° 0 mm 3 mps 759 mmHg 73%
    13:00 +17°C° 0 mm 3 mps 759 mmHg 72%
    14:00 +17°C° 0 mm 3 mps 759 mmHg 71%
    15:00 +17°C° 0 mm 4 mps 758 mmHg 70%
    16:00 +16°C° 0 mm 3 mps 758 mmHg 73%
    17:00 +14°C° 0 mm 3 mps 758 mmHg 77%
    18:00 +13°C° 0 mm 3 mps 758 mmHg 80%
    19:00 +12°C° 0 mm 3 mps 758 mmHg 82%
    20:00 +12°C° 0 mm 2 mps 758 mmHg 84%
    21:00 +11°C° 0 mm 1 mps 758 mmHg 86%
    22:00 +10°C° 0 mm 1 mps 758 mmHg 87%
    23:00 +10°C° 0 mm 1 mps 758 mmHg 88%

    12 Abril, Domingo

    Tiempo Temperatura Precipitaciones Viento Presión Humedad
    00:00 +9°C° 0 mm 1 mps 758 mmHg 89%
    01:00 +9°C° 0 mm 1 mps 758 mmHg 89%
    02:00 +7°C° 0 mm 0 mps 758 mmHg 89%
    03:00 +7°C° 0 mm 0 mps 757 mmHg 89%
    04:00 +7°C° 0 mm 0 mps 757 mmHg 88%
    05:00 +8°C° 0 mm 0 mps 757 mmHg 87%
    06:00 +8°C° 0 mm 0 mps 757 mmHg 85%
    07:00 +10°C° 0 mm 1 mps 758 mmHg 78%
    08:00 +11°C° 0 mm 1 mps 758 mmHg 70%
    09:00 +12°C° 0 mm 2 mps 758 mmHg 63%
    10:00 +13°C° 0 mm 2 mps 758 mmHg 62%
    11:00 +13°C° 0 mm 3 mps 759 mmHg 61%
    12:00 +14°C° 0 mm 3 mps 759 mmHg 59%
    13:00 +14°C° 0 mm 3 mps 759 mmHg 59%
    14:00 +14°C° 0 mm 3 mps 759 mmHg 59%
    15:00 +14°C° 0 mm 4 mps 759 mmHg 59%
    16:00 +13°C° 0 mm 4 mps 759 mmHg 62%
    17:00 +12°C° 0 mm 4 mps 760 mmHg 66%
    18:00 +11°C° 0 mm 4 mps 760 mmHg 69%
    19:00 +10°C° 0 mm 4 mps 761 mmHg 70%
    20:00 +9°C° 0 mm 3 mps 761 mmHg 71%
    21:00 +8°C° 0 mm 3 mps 762 mmHg 72%
    22:00 +8°C° 0 mm 3 mps 762 mmHg 73%
    23:00 +7°C° 0 mm 3 mps 763 mmHg 74%

    13 Abril, Lunes

    Tiempo Temperatura Precipitaciones Viento Presión Humedad
    00:00 +7°C° 0 mm 3 mps 763 mmHg 76%
    01:00 +7°C° 0 mm 3 mps 763 mmHg 78%
    02:00 +5°C° 0 mm 4 mps 764 mmHg 79%
    03:00 +5°C° 0 mm 4 mps 764 mmHg 81%
    04:00 +5°C° 0 mm 4 mps 764 mmHg 79%
    05:00 +5°C° 0 mm 4 mps 764 mmHg 77%
    06:00 +6°C° 0 mm 4 mps 765 mmHg 76%
    07:00 +6°C° 0 mm 5 mps 765 mmHg 72%
    08:00 +6°C° 0 mm 5 mps 765 mmHg 68%
    09:00 +7°C° 0 mm 5 mps 766 mmHg 64%
    10:00 +8°C° 0 mm 5 mps 766 mmHg 61%
    11:00 +9°C° 0 mm 5 mps 766 mmHg 58%
    12:00 +11°C° 0 mm 4 mps 766 mmHg 55%
    13:00 +11°C° 0 mm 4 mps 766 mmHg 53%
    14:00 +12°C° 0 mm 4 mps 766 mmHg 52%
    15:00 +12°C° 0 mm 4 mps 766 mmHg 51%
    16:00 +11°C° 0 mm 4 mps 766 mmHg 55%
    17:00 +10°C° 0 mm 4 mps 766 mmHg 59%
    18:00 +10°C° 0 mm 4 mps 766 mmHg 63%
    19:00 +7°C° 0 mm 4 mps 767 mmHg 68%
    20:00 +7°C° 0 mm 3 mps 767 mmHg 72%
    21:00 +4°C° 0 mm 3 mps 768 mmHg 77%
    22:00 +5°C° 0 mm 2 mps 768 mmHg 79%
    23:00 +4°C° 0 mm 2 mps 768 mmHg 80%
    Mostrar más